sat.trackr.live / text

‹ back to catalog

ARVAKER-1

NORAD 63252 · 2025-052AU

PAYLOAD ACTIVE UNKNOWN

§ Identity

Operator
Country
NOR
Launch date
2025-03-15
Launch site
AFWTR
Launch vehicle
Mass (kg)
RCS (m²)

External: N2YO · Heavens-Above · Gunter

§ Orbital elements

Epoch: 2026-09-22T16:27:33.868224Z

Period
96.33 min
Inclination
97.6721°
Eccentricity
0.0000994
Mean motion
14.94867830 rev/d
Perigee alt
582.1 km
Apogee alt
583.5 km
Semi-major
6,960.9 km
B*
9.3630e-5
RAAN
154.8274°
Arg perigee
240.4852°
Mean anomaly
119.6270°
Rev number
8,317

§ Raw data

ARVAKER-11 63252U 25052AU  26265.68580866  .00000964  00000+0  93630-4 0  99932 63252  97.6721 154.8274 0000994 240.4852 119.6270 14.94867830 83175

JSON: /api/v1/satellites/63252 · /tle

For live sub-satellite position, see the globe view (requires WebGL).

§ Visibility from observer

Set your observer location to see the next 7 days of passes ≥ 10°. The values pass through the URL so the page stays shareable.

No JS? Fill the form by hand. The geolocation button needs JavaScript.

§ Radio — SatNOGS DB

ModeDescriptionDownlinkUplink
FM Mode S - Transmitter 2.245 GHz

1 transmitter · refreshed weekly from db.satnogs.org